www.pogodaiklimat.ru

Погода и климат >> Архив погоды >> Япония >> Tokyo


АРХИВ ПОГОДЫ в Tokyo

Время (UTC), дата Ветер
(напр.,м/с)
 
Видим.   Явления Облачность Т
(С)
Тd
(С)
f
(%)
Тe
(С)
Тes
(С)
Комфортность P
(гПа)
Po
(гПа)
Тmin
(С)
Tmax
(С)
R
(мм)
R24
(мм)
S
(см)
16 11.10 СЗ 5 н/о н/о +20.3 +19.3 94 +24 +24 комфорт 1011.8 1009.0
17 11.10 С 2 н/о н/о +19.9 +18.7 93 +24 +24 комфорт 1011.9 1009.1
18 11.10 С 2 8000 м дымка 9/9
[Cu med, cong]
+19.8 +18.6 93 +23 +23 комфорт 1012.4 1009.6
19 11.10 СЗ 4 н/о н/о +19.3 +18.0 92 +21 +21 комфорт 1012.9 1010.1
20 11.10 С 3 н/о н/о +19.2 +18.2 94 +22 +22 комфорт 1013.3 1010.5
21 11.10 С 2 10 км в посл. час ливневой дождь 10/9
[Cu med, cong Ac As]
+19.3 +18.1 93 +22 +22 комфорт 1013.8 1011.0
22 11.10 СВ 2 н/о н/о +19.4 +17.9 91 +22 +22 комфорт 1013.8 1011.0
23 11.10 С 2 н/о н/о +20.1 +17.7 86 +24 +24 комфорт 1013.8 1011.0
00 12.10 СЗ 5 20 км слабый ливневой дождь 10/8
[Cu Sc Ac As]
+19.4 +16.3 82 +21 +21 комфорт 1015.8 1013.0 +19.1 0.0
01 12.10 С 3 н/о н/о +20.3 +15.9 76 +23 +23 комфорт 1015.4 1012.6
02 12.10 С 2 н/о н/о +20.7 +15.7 73 +24 +24 комфорт 1015.9 1013.1
03 12.10 С 4 20 км {ливн. осадки} 10/9
[Sc Ci sp]
+21.9 +16.2 70 +26 +26 душно 1015.7 1012.9
04 12.10 С 3 н/о н/о +21.9 +16.0 69 +26 +26 душно 1015.7 1012.9
05 12.10 СВ 4 н/о н/о +20.9 +15.5 71 +24 +24 комфорт 1016.6 1013.8
06 12.10 СВ 2 20 км {ливн. осадки} 10/10
[Cu Sc]
+21.0 +14.7 67 +25 +25 комфорт 1017.5 1014.7 0.0
07 12.10 СВ 3 н/о н/о +20.1 +13.6 66 +22 +22 комфорт 1018.2 1015.4
08 12.10 В 4 н/о н/о +20.8 +14.2 66 +24 +24 комфорт 1018.3 1015.5
09 12.10 В 3 20 км 9/4
[Sc Ac trans Ci sp]
+20.0 +15.0 73 +23 +23 комфорт 1019.5 1016.7
10 12.10 В 3 н/о н/о +19.8 +13.3 66 +22 +22 комфорт 1020.7 1017.8
11 12.10 СВ 3 н/о н/о +19.5 +13.0 66 +21 +21 комфорт 1021.3 1018.4
12 12.10 В 4 20 км {дождь} 10/9
[Sc Ac As]
+19.5 +12.8 65 +21 +21 комфорт 1021.9 1019.0 +22.5 0.0
13 12.10 В 3 н/о н/о +19.1 +12.4 65 +20 +20 тепло 1022.3 1019.4
14 12.10 С 2 н/о н/о +18.8 +12.8 68 +20 +20 тепло 1022.4 1019.5
15 12.10 СЗ 2 н/о н/о +18.4 +11.5 64 +19 +19 тепло 1022.3 1019.4
16 12.10 С 2 н/о н/о +18.1 +10.5 61 +19 +19 тепло 1022.3 1019.4
17 12.10 С 2 н/о н/о +18.0 +9.6 58 +19 +19 тепло 1022.7 1019.8
18 12.10 С 2 15 км 10/10
[Sc]
+17.7 +9.6 59 +18 +18 тепло 1022.6 1019.7
19 12.10 С 3 н/о н/о +17.6 +9.3 58 +18 +18 по сезону 1022.7 1019.8
20 12.10 С 2 н/о н/о +17.3 +10.2 63 +18 +18 по сезону 1023.4 1020.5
21 12.10 С 2 20 км в посл. час дождь 10/8
[Sc Ac As]
+17.1 +11.4 69 +17 +17 по сезону 1023.7 1020.8
22 12.10 СЗ 3 н/о н/о +16.8 +11.1 69 +17 +17 прохладно 1024.5 1021.6
23 12.10 СВ 2 н/о н/о +17.3 +10.2 63 +18 +18 по сезону 1024.8 1021.9
00 13.10 С 3 20 км {дождь} 10/6
[Sc Ac As]
+17.5 +9.9 61 +18 +18 по сезону 1024.9 1022.0 +16.8 0.0
01 13.10 С 2 н/о н/о +17.7 +10.8 64 +18 +18 прохладно 1024.8 1021.9
02 13.10 С 3 н/о н/о +17.5 +9.2 58 +18 +18 прохладно 1024.7 1021.8
03 13.10 С 2 20 км 10/8
[Cu Sc Ac As]
+17.6 +9.5 59 +18 +19 прохладно 1024.0 1021.1
04 13.10 СВ 3 н/о н/о +17.4 +11.2 67 +17 +17 холодно 1023.7 1020.8
05 13.10 С 2 н/о н/о +17.3 +12.2 72 +18 +18 холодно 1023.4 1020.5
06 13.10 С 4 20 км {дождь} 10/9
[Cu Sc Ac As]
+18.2 +12.7 70 +18 +19 прохладно 1023.2 1020.3 0.0
07 13.10 СВ 4 н/о н/о +17.9 +12.1 69 +18 +18 прохладно 1023.1 1020.2
08 13.10 СВ 4 н/о н/о +17.8 +10.7 63 +18 +18 прохладно 1023.2 1020.3
09 13.10 СВ 4 20 км 9/8
[Cu Sc Ac As]
+17.7 +10.8 64 +18 +18 прохладно 1023.4 1020.5
10 13.10 СВ 3 н/о н/о +17.4 +10.8 65 +17 +17 прохладно 1023.5 1020.6
11 13.10 СВ 3 н/о н/о +17.2 +10.4 64 +17 +17 прохладно 1023.2 1020.3
12 13.10 С 3 20 км в посл. час дождь 9/9
[Cu Sc Ac As]
+17.3 +10.4 64 +17 +17 по сезону 1023.4 1020.5 +18.3 0.0
13 13.10 С 3 н/о н/о +16.7 +11.0 69 +16 +16 по сезону 1023.1 1020.2
14 13.10 С 2 н/о н/о +16.4 +10.9 70 +17 +17 по сезону 1022.9 1020.0
15 13.10 СЗ 2 н/о н/о +15.6 +12.0 79 +15 +15 прохладно 1022.5 1019.6
16 13.10 С 2 н/о н/о +15.3 +12.1 81 +15 +15 по сезону 1022.2 1019.3
17 13.10 СЗ 3 н/о н/о +14.7 +12.4 86 +14 +14 прохладно 1022.6 1019.7
18 13.10 СВ 2 15 км слабый дождь 10/10
[Cu Sc]
+13.9 +13.3 96 +13 +13 прохладно 1021.1 1018.2 2
19 13.10 СЗ 3 н/о н/о +14.1 +14.1 100 +13 +13 холодно 1022.1 1019.2
20 13.10 С 3 н/о н/о +13.6 +13.6 100 +12 +12 холодно 1021.7 1018.8
21 13.10 С 3 10 км слабый дождь 10/9
[Sc As op]
+13.5 +13.5 100 +12 +12 холодно 1021.4 1018.5
22 13.10 СЗ 4 н/о н/о +13.4 +13.4 100 +12 +12 холодно 1021.8 1018.9
23 13.10 СЗ 5 н/о н/о +14.6 +14.6 100 +13 +13 холодно 1021.7 1018.8
00 14.10 СЗ 3 20 км в посл. час дождь 9/4
[Sc Ac As]
+15.0 +13.4 90 +14 +15 прохладно 1021.7 1018.8 +13.2 8
01 14.10 СЗ 3 н/о н/о +16.5 +14.5 88 +16 +16 холодно 1021.2 1018.3
02 14.10 СЗ 4 н/о н/о +17.2 +13.7 80 +17 +17 прохладно 1021.0 1018.1
03 14.10 СЗ 2 20 км в посл. час дождь 9/3
[Sc Ac As]
+18.6 +14.1 75 +20 +23 по сезону 1020.3 1017.4
04 14.10 СЗ 3 н/о н/о +18.8 +14.1 74 +20 +20 прохладно 1019.8 1016.9
05 14.10 С 2 н/о н/о +19.3 +13.7 70 +21 +21 комфорт 1019.5 1016.6
06 14.10 СЗ 2 20 км {дождь} 9/9
[Cu Sc Ac As]
+18.8 +13.9 73 +20 +21 по сезону 1020.1 1017.2 0.0
07 14.10 СВ 2 н/о н/о +18.3 +14.4 78 +19 +19 прохладно 1019.9 1017.0
08 14.10 В 2 н/о н/о +17.7 +14.8 83 +18 +18 прохладно 1020.0 1017.1
09 14.10 В 2 20 км 9/6
[Cu Sc Ac trans Ci sp]
+17.6 +14.1 80 +18 +18 прохладно 1020.3 1017.4
10 14.10 В 1 н/о н/о +16.9 +14.6 86 +18 +18 по сезону 1020.6 1017.7
11 14.10 СВ 3 н/о н/о +17.2 +14.5 84 +17 +17 по сезону 1020.6 1017.7
12 14.10 СВ 1 20 км 9/9
[Cu Sc Ac As]
+17.0 +14.3 84 +18 +18 по сезону 1020.9 1018.0 +19.6 0.0
13 14.10 ЮВ 2 н/о н/о +17.2 +13.9 81 +18 +18 по сезону 1020.8 1017.9
14 14.10 СВ 2 н/о н/о +17.2 +13.7 80 +18 +18 по сезону 1020.9 1018.0
15 14.10 СВ 2 н/о н/о +17.2 +13.9 81 +18 +18 по сезону 1020.4 1017.5
16 14.10 С 2 н/о н/о +17.4 +14.3 82 +18 +18 тепло 1020.4 1017.5
17 14.10 С 1 н/о н/о +17.6 +14.3 81 +19 +19 тепло 1020.6 1017.7
18 14.10 С 1 20 км 9/8
[Sc Ac As]
+17.0 +14.8 87 +18 +18 тепло 1020.1 1017.2
19 14.10 СЗ 2 н/о н/о +16.8 +15.0 89 +17 +17 по сезону 1020.2 1017.3
20 14.10 С 2 н/о н/о +16.8 +14.5 86 +17 +17 по сезону 1020.1 1017.2
21 14.10 С 2 20 км 9/3
[Sc Ac As]
+16.4 +14.6 89 +17 +17 по сезону 1020.2 1017.3
22 14.10 С 1 н/о н/о +16.9 +14.6 86 +18 +18 по сезону 1020.7 1017.8
23 14.10 С 2 н/о н/о +17.7 +14.8 83 +18 +18 по сезону 1021.1 1018.2
00 15.10 СЗ 2 20 км 10/1
[Sc Ac As]
+18.2 +14.5 79 +19 +20 по сезону 1020.3 1017.4 +16.4
01 15.10 Ю 1 н/о н/о +19.0 +15.1 78 +22 +22 комфорт 1020.2 1017.3
02 15.10 СВ 2 н/о н/о +20.3 +14.0 67 +23 +23 комфорт 1019.3 1016.5
03 15.10 В 2 20 км 10/4
[Cu Sc Ac As]
+20.4 +14.1 67 +24 +26 комфорт 1018.6 1015.8
04 15.10 Ю 1 н/о н/о +19.7 +15.0 74 +23 +23 комфорт 1017.7 1014.9
05 15.10 С 1 н/о н/о +20.6 +13.6 64 +24 +24 комфорт 1016.9 1014.1
06 15.10 В 1 20 км {дождь} 10/6
[Cu Sc Ac As]
+19.4 +14.7 74 +22 +23 комфорт 1016.9 1014.1 0.0
07 15.10 В 2 н/о н/о +18.8 +14.5 76 +21 +21 комфорт 1017.0 1014.1
08 15.10 В 2 н/о н/о +18.7 +15.2 80 +20 +20 по сезону 1016.9 1014.0
09 15.10 В 2 20 км слабый дождь 10/8
[Cu Sc Ac As]
+19.1 +15.4 79 +21 +21 комфорт 1017.1 1014.2
10 15.10 СВ 3 н/о н/о +18.2 +14.9 81 +19 +19 по сезону 1017.5 1014.6
11 15.10 СВ 2 н/о н/о +16.9 +15.3 90 +17 +17 по сезону 1017.7 1014.8
12 15.10 СВ 3 15 км слабый дождь 9/1
[Sc Ac As]
+16.8 +15.2 90 +17 +17 по сезону 1017.5 1014.6 +21.1 0.5
13 15.10 В 2 н/о н/о +17.0 +15.2 89 +18 +18 по сезону 1017.3 1014.4
14 15.10 СВ 1 н/о н/о +17.0 +14.7 86 +18 +18 по сезону 1017.3 1014.4
15 15.10 СЗ 1 н/о н/о +17.3 +15.1 87 +18 +18 по сезону 1016.8 1013.9
16 15.10 С 1 н/о н/о +17.0 +14.8 87 +18 +18 тепло 1016.5 1013.6
17 15.10 СЗ 2 н/о н/о +16.7 +14.5 87 +17 +17 по сезону 1016.6 1013.7
18 15.10 СЗ 2 20 км {дождь} 6/1
[Sc Ac trans Ci sp]
+16.1 +14.3 89 +16 +16 по сезону 1016.4 1013.5 0.0
19 15.10 С 2 н/о н/о +16.1 +15.0 93 +16 +16 по сезону 1016.1 1013.2
20 15.10 СЗ 3 н/о н/о +16.2 +15.1 93 +16 +16 по сезону 1016.2 1013.3
21 15.10 СЗ 3 15 км 9/1
[Sc Ac trans Ci sp]
+15.7 +14.4 92 +15 +15 прохладно 1016.2 1013.3
22 15.10 СЗ 3 н/о н/о +16.3 +14.1 87 +16 +16 прохладно 1016.7 1013.8
23 15.10 С 3 н/о н/о +17.0 +13.5 80 +17 +17 по сезону 1016.6 1013.7
00 16.10 СЗ 2 20 км 9/1
[Sc Ac trans Ci sp]
+18.2 +13.9 76 +19 +22 тепло 1016.0 1013.1 +15.5 0.0
01 16.10 СЗ 3 н/о н/о +18.9 +14.0 73 +20 +20 по сезону 1015.3 1012.5
02 16.10 СВ 2 н/о н/о +20.2 +13.7 66 +23 +23 комфорт 1014.5 1011.7
03 16.10 СЗ 2 20 км 9/1
[Cu hum Ac trans Cs]
+20.4 +13.1 63 +23 +28 комфорт 1013.4 1010.6
04 16.10 С 2 н/о н/о +20.8 +13.5 63 +24 +24 комфорт 1012.9 1010.1
05 16.10 С 2 н/о н/о +20.6 +13.3 63 +24 +24 комфорт 1012.8 1010.0
06 16.10 СЗ 2 20 км 9/1
[Cu hum Ac trans Ci sp]
+20.1 +14.0 68 +23 +25 комфорт 1012.2 1009.4
07 16.10 СВ 2 н/о н/о +19.7 +14.7 73 +22 +22 комфорт 1011.9 1009.1
08 16.10 С 2 н/о н/о +20.0 +14.2 69 +23 +23 комфорт 1011.9 1009.1
09 16.10 С 3 15 км 10/3
[Sc Ac As]
+19.9 +14.7 72 +22 +22 комфорт 1011.6 1008.8
10 16.10 С 3 н/о н/о +19.1 +15.8 81 +21 +21 комфорт 1011.6 1008.8
11 16.10 СВ 4 н/о н/о +18.8 +15.9 83 +20 +20 тепло 1011.3 1008.5
12 16.10 С 2 15 км 10/3
[Cu Sc Ac As]
+18.6 +15.7 83 +20 +20 тепло 1011.0 1008.2 +21.2
13 16.10 С 2 н/о н/о +18.6 +15.5 82 +20 +20 тепло 1010.8 1008.0
14 16.10 С 2 н/о н/о +18.3 +15.2 82 +19 +19 тепло 1010.3 1007.5
15 16.10 СЗ 3 н/о н/о +18.0 +15.3 84 +18 +18 по сезону 1010.5 1007.7
16 16.10 СЗ 2 н/о н/о +16.9 +15.6 92 +17 +17 тепло 1009.7 1006.8
17 16.10 С 3 н/о н/о +16.9 +15.1 89 +17 +17 по сезону 1009.3 1006.4
18 16.10 СЗ 3 15 км слабый дождь 10/5
[Sc As op]
+16.6 +14.4 87 +16 +16 по сезону 1009.3 1006.4 0.0
19 16.10 С 2 н/о н/о +15.9 +15.3 96 +16 +16 по сезону 1009.3 1006.4
20 16.10 СЗ 2 н/о н/о +15.5 +15.4 99 +16 +16 по сезону 1009.9 1007.0
21 16.10 С 1 10 км в посл. час дождь 9/9
[Cu Sc]
+15.1 +15.1 100 +16 +16 по сезону 1010.3 1007.4
22 16.10 СЗ 3 н/о н/о +15.5 +14.4 93 +15 +15 прохладно 1010.5 1007.6
23 16.10 С 3 н/о н/о +16.4 +13.9 85 +16 +16 по сезону 1010.9 1008.0
00 17.10 СЗ 3 15 км в посл. час дождь 8/5
[Sc Ac trans Ci fib]
+18.5 +13.8 74 +19 +21 тепло 1011.0 1008.2 +14.9 1
01 17.10 С 2 н/о н/о +20.5 +14.2 67 +24 +24 комфорт 1011.0 1008.2
02 17.10 С 2 н/о н/о +20.9 +13.1 61 +24 +24 комфорт 1010.7 1007.9
03 17.10 СЗ 4 20 км 8/4
[Cu med, cong Ac trans Ci sp]
+20.9 +13.4 62 +24 +27 комфорт 1010.1 1007.3
04 17.10 СВ 3 н/о н/о +21.8 +13.5 59 +25 +25 комфорт 1009.6 1006.8
05 17.10 СВ 3 н/о н/о +21.0 +13.0 60 +24 +24 комфорт 1009.7 1006.9
06 17.10 СВ 4 20 км 9/6
[Cu med, cong Ac As]
+20.3 +14.2 68 +23 +23 комфорт 1010.0 1007.2
07 17.10 В 4 н/о н/о +20.1 +13.3 65 +22 +22 комфорт 1011.1 1008.3
08 17.10 В 2 н/о н/о +19.4 +13.6 69 +21 +21 комфорт 1012.1 1009.3
09 17.10 СВ 4 15 км в посл. час дождь 10/9
[Cu Sc Ac As]
+18.9 +14.0 73 +20 +20 по сезону 1013.1 1010.3
10 17.10 СВ 3 н/о н/о +18.5 +13.2 71 +19 +19 по сезону 1013.9 1011.1
11 17.10 СВ 3 н/о н/о +17.9 +12.6 71 +18 +18 по сезону 1014.2 1011.3
12 17.10 СВ 4 20 км {дождь} 9/6
[Cu Sc Ac As]
+17.7 +12.4 71 +17 +17 по сезону 1014.9 1012.0 +22.3 0.0
13 17.10 СВ 3 н/о н/о +17.2 +12.9 76 +17 +17 по сезону 1014.7 1011.8
14 17.10 С 3 н/о н/о +17.1 +12.6 75 +17 +17 по сезону 1014.4 1011.5
15 17.10 СВ 3 н/о н/о +16.6 +13.1 80 +16 +16 по сезону 1014.6 1011.7
16 17.10 С 3 н/о н/о +15.9 +13.2 84 +16 +16 по сезону 1014.7 1011.8
17 17.10 С 2 н/о н/о +16.1 +11.7 75 +16 +16 по сезону 1015.0 1012.1
18 17.10 С 2 15 км 3/0
[Ac trans Ci sp]
+14.9 +12.0 83 +15 +15 по сезону 1015.0 1012.1
19 17.10 С 2 н/о н/о +15.0 +11.4 79 +15 +15 по сезону 1015.5 1012.6
20 17.10 С 2 н/о н/о +14.5 +11.3 81 +14 +14 прохладно 1015.7 1012.8
21 17.10 СЗ 2 15 км 3/1
[Sc Ac trans Ci fib]
+14.0 +11.4 84 +14 +14 прохладно 1016.1 1013.2
22 17.10 С 2 н/о н/о +14.8 +12.0 83 +15 +15 прохладно 1016.7 1013.8
23 17.10 С 2 н/о н/о +16.7 +11.4 71 +17 +17 по сезону 1016.9 1014.0
00 18.10 С 2 20 км 9/1
[Cu med, cong Ac trans Ci fib]
+17.5 +11.8 69 +18 +21 по сезону 1017.0 1014.1 +13.7
01 18.10 СВ 3 н/о н/о +19.1 +12.6 66 +20 +20 по сезону 1016.8 1013.9
02 18.10 СВ 3 н/о н/о +20.0 +11.8 59 +22 +22 комфорт 1016.2 1013.4
03 18.10 С 2 20 км 9/8
[Cu Sc Ac trans Ci sp]
+20.0 +11.0 56 +22 +24 комфорт 1016.1 1013.3
04 18.10 В 2 н/о н/о +19.9 +12.4 62 +22 +22 комфорт 1015.4 1012.6
05 18.10 СВ 3 н/о н/о +20.3 +11.5 57 +22 +22 комфорт 1015.4 1012.6
06 18.10 В 4 20 км 8/4
[Cu Sc Ac trans Ci sp]
+19.6 +12.9 65 +21 +22 комфорт 1015.7 1012.9
07 18.10 В 3 н/о н/о +19.3 +12.6 65 +21 +21 комфорт 1016.2 1013.4
08 18.10 СВ 4 н/о н/о +18.4 +12.8 70 +19 +19 по сезону 1016.9 1014.0
09 18.10 СВ 3 20 км 3/3
[Cu Sc Ac trans]
+17.5 +13.2 76 +17 +17 прохладно 1017.2 1014.3
10 18.10 СВ 3 н/о н/о +17.4 +13.1 76 +17 +17 по сезону 1018.0 1015.1
11 18.10 СВ 4 н/о н/о +16.9 +13.1 78 +16 +16 по сезону 1018.0 1015.1
12 18.10 СВ 3 20 км 4/3
[Cu Sc Ac trans]
+16.2 +12.8 80 +16 +16 по сезону 1018.3 1015.4 +21.7
13 18.10 СВ 3 н/о н/о +16.6 +12.6 77 +16 +16 по сезону 1018.1 1015.2
14 18.10 СВ 4 н/о н/о +16.1 +12.3 78 +15 +15 по сезону 1017.9 1015.0
15 18.10 С 2 н/о н/о +16.0 +12.2 78 +16 +16 по сезону 1017.7 1014.8

 

Местоположение метеостанции Tokyo (Япония): широта 35.68 долгота 139.76 высота над уровнем моря 36 м.

В архиве по умолчанию представлена погода в Tokyo за последнюю неделю. Архивные данные за месяц целиком и за предыдущие месяцы, начиная с января 2011 года, Вы можете получить, выбрав интересующий диапазон дат из раскрывающегося списка и нажав кнопку "Ввод!".


*Определитесь, кто Вы:
робот инопланетянин человек

Внимание! Время в таблицах - всемирное. Для получения местного времени необходимо прибавить поправку, которая в Tokyo равна 9 ч.

Смотрите также архив погоды в соседних городах и на ближайших метеорологических станциях:

Погода в Yokohama (Япония) (30 км)
Погода в Chiba (Япония) (32 км)
Погода в Kumagaya (Япония) (62 км)
Погода в Chichibu (Япония) (71 км)
Погода в Katsuura (Япония) (77 км)
Погода в Tateyama (Япония) (78 км)
Погода в Ajiro (Япония) (92 км)
Погода в Kawaguchiko (Япония) (93 км)
Погода в Utsunomiya (Япония) (97 км)
Погода в Mishima (Япония) (98 км)

Пояснения к столбцам:

Ветер - указаны скорость ветра в м/с - средняя за 10 мин, порывы в срок и между сроками (в фигурных скобках) и направление, откуда дует ветер: С - северный, СВ - северо-восточный, В - восточный, ЮВ - юго-восточный, Ю - южный, ЮЗ - юго-западный, З - западный, СЗ - северо-западный.
Видимость - горизонтальная дальность видимости в метрах или километрах. При видимости от 1 до 10 км при отсутствии осадков обычно наблюдается дымка, при ухудшении видимости до 1 км и менее - туман. В сухую погоду видимость может ухудшаться дымом, пылью или мглою.
Явления - указаны атмосферные явления, наблюдавшиеся в срок или в последний час перед сроком; фигурными скобками обозначены явления, наблюдавшиеся между сроками (за 1-3 часа до срока); квадратными скобками обозначены град или гололедные отложения с указанием их диаметра в мм.
Облачность - указаны через наклонную черту общая и нижняя облачность в баллах и высота нижней границы облаков в метрах; квадратными скобками обозначены формы облаков: Ci - перистые, Cs - перисто-слоистые, Cc - перисто-кучевые, Ac - высококучевые, As - высокослоистые, Sc - слоисто-кучевые, Ns - слоисто-дождевые, Cu - кучевые, Cb - кучево-дождевые. Подробнее классификацию облаков см. в Атласе облаков (PDF).
T - Температура воздуха - температура, измеренная на высоте 2 м над землей.
Td - Температура точки росы - температура, при понижении до которой содержащийся в воздухе водяной пар достигнет насыщения.
f - Относительная влажность воздуха - влажноcть воздуха, измеренная на высоте 2 м над землей.
Te - Эффективная температура - температура, которую ощущает одетый по сезону человек в тени. Характеристика душности погоды. При расчете учитывается влияние влажности воздуха и скорости ветра на теплоощущения человека.
Tes - Эффективная температура на солнце - температура, которую ощущает человек, с поправкой на солнечный нагрев. Характеристика знойности погоды. Зависит от высоты солнца над горизонтом, облачности и скорости ветра. Ночью, в пасмурную погоду, а также при ветре 12 м/с и более поправка равна нулю.
P - Атмосферное давление - приведенное к уровню моря атмосферное давление.
Po - Атмосферное давление - измеренное на уровне метеостанции атмосферное давление.
Tmin - Минимальная температура - минимум температуры воздуха на высоте 2 м над землей.
Tmax - Максимальная температура - максимум температуры воздуха на высоте 2 м над землей.
R - Количество осадков - Количество выпавших осадков за период времени, мм. При наведении курсора мыши на число - период времени, за который выпало указанное количество осадков.
R24 - Количество осадков - Количество выпавших осадков за 24 часа, мм.
S - Снежный покров - Высота снежного покрова, см. При наведении курсора мыши на число - состояние снежного покрова и степень покрытия местности в баллах.